TimeEDT,TemperatureF,Dew PointF,Humidity,Sea Level PressureIn,VisibilityMPH,Wind Direction,Wind SpeedMPH,Gust SpeedMPH,PrecipitationIn,Events,Conditions,WindDirDegrees,DateUTC
12:41 AM,69.8,64.4,83,29.91,9.0,WSW,4.6,-,N/A,,Scattered Clouds,240,2013-08-04 04:41:00
12:54 AM,69.1,64.9,87,29.91,9.0,WSW,4.6,-,N/A,,Scattered Clouds,240,2013-08-04 04:54:00
1:54 AM,68.0,62.1,81,29.89,9.0,Calm,Calm,-,N/A,,Partly Cloudy,0,2013-08-04 05:54:00
2:54 AM,68.0,62.1,81,29.88,9.0,Calm,Calm,-,N/A,,Scattered Clouds,0,2013-08-04 06:54:00
3:54 AM,68.0,63.0,84,29.89,9.0,NW,4.6,-,N/A,,Mostly Cloudy,310,2013-08-04 07:54:00
4:54 AM,66.9,62.1,84,29.88,9.0,NW,3.5,-,N/A,,Mostly Cloudy,320,2013-08-04 08:54:00
5:54 AM,66.9,62.1,84,29.90,9.0,NW,4.6,-,N/A,,Scattered Clouds,320,2013-08-04 09:54:00
6:28 AM,66.2,60.8,83,29.91,10.0,NW,3.5,-,N/A,,Scattered Clouds,310,2013-08-04 10:28:00
6:54 AM,66.9,61.0,81,29.91,10.0,Calm,Calm,-,N/A,,Partly Cloudy,0,2013-08-04 10:54:00
7:54 AM,69.1,59.0,70,29.93,10.0,Calm,Calm,-,N/A,,Scattered Clouds,0,2013-08-04 11:54:00
8:54 AM,71.1,59.0,66,29.93,10.0,NNW,5.8,-,N/A,,Mostly Cloudy,340,2013-08-04 12:54:00
9:54 AM,73.9,57.0,55,29.94,10.0,North,9.2,-,N/A,,Scattered Clouds,350,2013-08-04 13:54:00
10:54 AM,75.9,55.9,50,29.94,10.0,WNW,8.1,-,N/A,,Partly Cloudy,300,2013-08-04 14:54:00
11:54 AM,78.1,55.0,45,29.94,10.0,NNW,11.5,16.1,N/A,,Scattered Clouds,330,2013-08-04 15:54:00
12:54 PM,79.0,52.0,39,29.92,10.0,WNW,16.1,19.6,N/A,,Scattered Clouds,300,2013-08-04 16:54:00
1:54 PM,79.0,53.1,40,29.92,10.0,WNW,13.8,19.6,N/A,,Scattered Clouds,290,2013-08-04 17:54:00
2:54 PM,78.1,55.0,45,29.91,10.0,NNW,18.4,24.2,N/A,,Scattered Clouds,330,2013-08-04 18:54:00
3:54 PM,80.1,52.0,38,29.91,10.0,NW,13.8,-,N/A,,Mostly Cloudy,310,2013-08-04 19:54:00
4:54 PM,79.0,52.0,39,29.91,10.0,NW,17.3,28.8,N/A,,Scattered Clouds,320,2013-08-04 20:54:00
5:54 PM,80.1,51.1,36,29.91,10.0,WNW,16.1,20.7,N/A,,Scattered Clouds,300,2013-08-04 21:54:00
6:54 PM,79.0,51.1,38,29.93,10.0,WNW,11.5,-,N/A,,Partly Cloudy,300,2013-08-04 22:54:00
7:54 PM,77.0,52.0,42,29.94,10.0,WNW,10.4,-,N/A,,Partly Cloudy,290,2013-08-04 23:54:00
8:54 PM,75.9,53.1,45,29.96,10.0,WNW,10.4,-,N/A,,Partly Cloudy,290,2013-08-05 00:54:00
9:54 PM,73.0,53.1,49,29.97,10.0,WNW,8.1,-,N/A,,Partly Cloudy,300,2013-08-05 01:54:00
10:54 PM,70.0,54.0,57,29.99,10.0,North,5.8,-,N/A,,Scattered Clouds,350,2013-08-05 02:54:00
11:54 PM,68.0,55.0,63,30.01,10.0,North,4.6,-,N/A,,Scattered Clouds,350,2013-08-05 03:54:00